FW6020 Weather Reports


Display with metric or nautical units.
time (UTC)temp
F
wind
direction
speed
MPH
gust
MPH
rain 1hr
in
rain 24hr
in
rain mn
in
humidity
%
barometer
mb
20260510084917 50 135 5.0 8.0 0.00 0.00 0.00 69 1008.6
20260510083916 51 158 2.0 4.0 0.00 0.00 0.00 69 1008.6
20260510082916 51 158 5.0 9.0 0.00 0.00 0.00 69 1008.7
20260510081917 51 158 4.0 6.0 0.00 0.00 0.00 69 1008.8
20260510080917 52 158 4.0 7.0 0.00 0.00 0.00 68 1009.0
20260510075917 52 158 7.0 14.0 0.00 0.00 0.00 68 1009.0
20260510074917 52 113 8.0 14.0 0.00 0.00 0.00 67 1008.9
20260510073916 52 158 6.0 10.0 0.00 0.00 0.00 67 1009.0
20260510072917 52 158 5.0 7.0 0.00 0.00 0.00 67 1009.0
20260510071937 52 113 6.0 11.0 0.00 0.00 0.00 67 1008.8
20260510070917 52 158 8.0 12.0 0.00 0.00 0.00 67 1008.7
20260510065916 52 113 6.0 11.0 0.00 0.00 0.00 67 1008.8
20260510064918 52 113 7.0 11.0 0.00 0.00 0.00 67 1008.9
20260510063916 52 113 4.0 9.0 0.00 0.00 0.00 66 1008.6
20260510062916 52 135 6.0 11.0 0.00 0.00 0.00 66 1008.8
20260510061917 53 135 5.0 9.0 0.00 0.00 0.00 65 1008.8
20260510060936 53 158 5.0 12.0 0.00 0.00 0.00 65 1008.8
20260510055916 52 135 5.0 10.0 0.00 0.00 0.00 65 1008.6
20260510054916 52 158 6.0 10.0 0.00 0.00 0.00 65 1008.8
20260510053916 52 158 8.0 11.0 0.00 0.00 0.00 65 1008.9
20260510052916 52 158 5.0 9.0 0.00 0.00 0.00 65 1008.9
20260510051916 52 158 5.0 9.0 0.00 0.00 0.00 65 1008.9
20260510050916 52 158 7.0 11.0 0.00 0.00 0.00 65 1008.8
20260510045916 52 158 8.0 13.0 0.00 0.00 0.00 64 1008.8
20260510044917 52 135 6.0 13.0 0.00 0.00 0.00 64 1008.5
20260510043916 52 158 8.0 13.0 0.00 0.00 0.00 64 1008.5
20260510042916 52 135 4.0 7.0 0.00 0.00 0.00 65 1008.6
20260510041916 51 158 6.0 10.0 0.00 0.00 0.00 66 1008.5
20260510040916 51 135 5.0 9.0 0.00 0.00 0.00 66 1008.3
20260510035916 51 90 3.0 12.0 0.00 0.00 0.00 67 1008.2
20260510034936 50 135 5.0 9.0 0.00 0.00 0.00 68 1008.1
20260510033917 51 135 6.0 12.0 0.00 0.00 0.00 67 1008.4
20260510032916 51 135 3.0 9.0 0.00 0.00 0.00 67 1008.6
20260510031916 51 113 7.0 11.0 0.00 0.00 0.00 67 1008.7
20260510030936 50 113 7.0 12.0 0.00 0.00 0.00 68 1008.7
20260510025916 50 158 4.0 7.0 0.00 0.00 0.00 68 1008.7
20260510024916 50 135 3.0 8.0 0.00 0.00 0.00 68 1009.0
20260510023956 50 135 6.0 9.0 0.00 0.00 0.00 68 1009.1
20260510022916 50 135 5.0 10.0 0.00 0.00 0.00 68 1009.2
20260510021936 50 158 4.0 11.0 0.00 0.00 0.00 67 1009.2
20260510020916 50 158 4.0 5.0 0.00 0.00 0.00 67 1009.1
20260510015916 50 158 5.0 8.0 0.00 0.00 0.00 68 1009.0
20260510014936 50 135 3.0 6.0 0.00 0.00 0.00 67 1009.1
20260510013916 50 135 4.0 8.0 0.00 0.00 0.00 67 1009.2
20260510012916 50 135 5.0 9.0 0.00 0.00 0.00 67 1009.2
20260510011916 50 113 3.0 6.0 0.00 0.00 0.00 67 1009.3
20260510010916 50 113 2.0 4.0 0.00 0.00 0.00 67 1009.2
20260510005916 50 90 6.0 15.0 0.00 0.00 0.00 68 1009.3
20260510004916 50 135 4.0 9.0 0.00 0.00 0.00 68 1009.5
20260510003916 50 158 4.0 7.0 0.00 0.00 0.00 68 1009.4
20260510002916 50 135 5.0 9.0 0.00 0.00 0.00 68 1009.6
20260510001916 50 135 6.0 11.0 0.00 0.00 0.00 68 1009.4
20260510000916 51 90 5.0 9.0 0.00 0.00 0.00 68 1009.5
20260509235936 51 203 6.0 10.0 0.00 0.00 0.00 68 1009.4
20260509234936 51 135 6.0 10.0 0.00 0.00 0.00 67 1009.4
20260509233916 52 158 5.0 9.0 0.00 0.00 0.00 66 1009.5
20260509232936 52 158 4.0 9.0 0.00 0.00 0.00 66 1009.4
20260509231936 53 90 6.0 10.0 0.00 0.00 0.00 64 1009.6
20260509230936 54 158 3.0 6.0 0.00 0.00 0.00 64 1009.4
20260509225915 54 90 6.0 12.0 0.00 0.00 0.00 63 1009.4
20260509224916 55 135 5.0 7.0 0.00 0.00 0.00 61 1009.4
20260509223956 55 135 3.0 5.0 0.00 0.00 0.00 62 1009.4
20260509222915 55 158 5.0 9.0 0.00 0.00 0.00 61 1009.7
20260509221916 55 158 7.0 13.0 0.00 0.00 0.00 60 1009.6
20260509220915 56 113 6.0 11.0 0.00 0.00 0.00 59 1010.0
20260509215915 56 135 8.0 18.0 0.00 0.00 0.00 60 1009.8
20260509214915 56 158 9.0 14.0 0.00 0.00 0.00 59 1009.7
20260509213915 56 158 11.0 15.0 0.00 0.00 0.00 58 1009.6
20260509212916 55 135 4.0 10.0 0.00 0.00 0.00 61 1009.6
20260509211915 55 113 8.0 13.0 0.00 0.00 0.00 61 1010.2
20260509210915 55 113 6.0 12.0 0.00 0.00 0.00 61 1010.1
20260509205916 55 135 7.0 14.0 0.00 0.00 0.00 60 1010.2
20260509204916 55 158 7.0 13.0 0.00 0.00 0.00 60 1010.2
20260509203916 56 90 7.0 11.0 0.00 0.00 0.00 59 1010.2
20260509202915 56 135 11.0 19.0 0.00 0.00 0.00 59 1010.4
20260509201916 56 158 10.0 15.0 0.00 0.00 0.00 57 1010.5
20260509200916 56 113 3.0 7.0 0.00 0.00 0.00 58 1010.4
20260509195916 56 158 7.0 11.0 0.00 0.00 0.00 56 1010.4
20260509194916 55 158 6.0 11.0 0.00 0.00 0.00 57 1010.2
20260509193917 55 135 7.0 13.0 0.00 0.00 0.00 57 1010.3
20260509192916 56 158 7.0 12.0 0.00 0.00 0.00 55 1010.3
20260509191915 56 135 4.0 9.0 0.00 0.00 0.00 56 1010.4
20260509190916 56 158 8.0 11.0 0.00 0.00 0.00 54 1010.5
20260509185916 56 113 5.0 8.0 0.00 0.00 0.00 54 1010.5
20260509184916 56 158 6.0 12.0 0.00 0.00 0.00 52 1010.5
20260509183916 56 158 10.0 14.0 0.00 0.00 0.00 52 1010.6
20260509182939 55 158 11.0 18.0 0.00 0.00 0.00 52 1010.9
20260509181917 55 135 9.0 15.0 0.00 0.00 0.00 52 1011.1
20260509180918 55 135 8.0 14.0 0.00 0.00 0.00 52 1011.4
20260509175938 56 135 8.0 12.0 0.00 0.00 0.00 49 1011.3
20260509174917 57 135 9.0 14.0 0.00 0.00 0.00 45 1011.5
20260509173917 57 135 10.0 16.0 0.00 0.00 0.00 44 1011.5
20260509172917 57 113 10.0 18.0 0.00 0.00 0.00 44 1011.5
20260509171937 57 158 9.0 14.0 0.00 0.00 0.00 50 1011.5
20260509170937 57 158 11.0 16.0 0.00 0.00 0.00 48 1011.5
20260509165917 57 158 5.0 20.0 0.00 0.00 0.00 47 1011.5
20260509164917 57 135 7.0 15.0 0.00 0.00 0.00 43 1011.8
20260509163917 57 180 7.0 16.0 0.00 0.00 0.00 44 1011.8
20260509162917 57 158 8.0 13.0 0.00 0.00 0.00 36 1011.9
20260509161917 57 158 7.0 13.0 0.00 0.00 0.00 37 1012.1
20260509160917 59 135 6.0 13.0 0.00 0.00 0.00 36 1012.2
20260509155958 59 158 5.0 8.0 0.00 0.00 0.00 37 1012.5
20260509154937 58 158 7.0 13.0 0.00 0.00 0.00 35 1012.6
20260509153917 58 113 7.0 12.0 0.00 0.00 0.00 35 1012.8
20260509152917 57 158 4.0 8.0 0.00 0.00 0.00 42 1012.9
20260509151917 57 158 7.0 11.0 0.00 0.00 0.00 40 1013.1
20260509150917 56 180 6.0 10.0 0.00 0.00 0.00 39 1013.2
20260509145937 57 113 7.0 12.0 0.00 0.00 0.00 40 1013.4
20260509144917 56 158 3.0 7.0 0.00 0.00 0.00 41 1013.5
20260509143917 55 158 4.0 9.0 0.00 0.00 0.00 40 1013.5
20260509142917 55 113 5.0 7.0 0.00 0.00 0.00 42 1013.5
20260509141917 54 158 6.0 11.0 0.00 0.00 0.00 42 1013.6
20260509140917 54 158 7.0 12.0 0.00 0.00 0.00 40 1013.5
20260509135937 53 158 4.0 8.0 0.00 0.00 0.00 45 1013.5
20260509134917 53 158 4.0 8.0 0.00 0.00 0.00 42 1013.6
20260509133917 52 158 3.0 10.0 0.00 0.00 0.00 44 1013.5
20260509132937 52 158 7.0 11.0 0.00 0.00 0.00 45 1013.7
20260509131917 51 113 6.0 12.0 0.00 0.00 0.00 47 1013.7
20260509130937 50 158 5.0 9.0 0.00 0.00 0.00 49 1013.8
20260509125917 49 158 6.0 11.0 0.00 0.00 0.00 48 1013.9
20260509124917 49 135 6.0 13.0 0.00 0.00 0.00 51 1013.9
20260509123917 48 158 7.0 9.0 0.00 0.00 0.00 50 1014.0
20260509122917 48 158 5.0 11.0 0.00 0.00 0.00 50 1014.0
20260509121917 48 158 5.0 7.0 0.00 0.00 0.00 53 1014.1
20260509120917 47 158 6.0 10.0 0.00 0.00 0.00 53 1014.0
20260509115917 46 158 7.0 9.0 0.00 0.00 0.00 54 1014.2
20260509114917 46 158 3.0 5.0 0.00 0.00 0.00 55 1014.1
20260509113917 45 135 3.0 6.0 0.00 0.00 0.00 56 1014.2
20260509112937 45 158 4.0 8.0 0.00 0.00 0.00 56 1014.1
20260509111917 44 158 4.0 6.0 0.00 0.00 0.00 57 1014.1
20260509110917 44 158 4.0 6.0 0.00 0.00 0.00 58 1014.0
20260509105917 43 158 5.0 8.0 0.00 0.00 0.00 60 1014.1
20260509104917 42 135 1.0 2.0 0.00 0.00 0.00 61 1014.1
20260509103917 41 158 1.0 3.0 0.00 0.00 0.00 63 1014.0
20260509102917 41 0.0 2.0 0.00 0.00 0.00 64 1013.9
20260509101917 40 135 2.0 3.0 0.00 0.00 0.00 65 1013.8
20260509100916 39 0.0 2.0 0.00 0.00 0.00 66 1013.8
20260509095937 38 158 1.0 3.0 0.00 0.00 0.00 66 1013.7
20260509094917 38 0.0 1.0 0.00 0.00 0.00 65 1013.7
20260509093916 38 0.0 1.0 0.00 0.00 0.00 65 1013.6
20260509092916 39 158 2.0 3.0 0.00 0.00 0.00 64 1013.6
20260509091937 39 0.0 0.0 0.00 0.00 0.00 64 1013.4
20260509090916 39 0.0 1.0 0.00 0.00 0.00 63 1013.6
20260509085917 39 135 1.0 3.0 0.00 0.00 0.00 63 1013.4